Torna al catalogo

STARLINK-35332

AttivoComunicazioniVLEO
NORAD 65887·PAYLOAD·🇺🇸 United States

Lanciato Oct 7, 2025 da Cape Canaveral Space Force Station

Loading…

Prossimi Passaggi (prossime 24 ore)

TLE

AggiornatoSource: CelesTrak SupGP

Epoca: Sep 14, 2026, 14:15 UTC

1 65887C 25224F   26257.59423611 -.00008295  00000+0 -24518-3 0  2577
2 65887  53.1581 209.3317 0001267  97.5486 166.4414 15.34380826    16

Traccia STARLINK-35332 in tempo reale con AllMySat

Download on the App Store